Weather History for Auburn, CA

Change the Weather History Date:

Wednesday, October 5, 2011

  Actual Average Record
Temperature  
Mean Temperature 52 °F -  
Max Temperature 57 °F 80 °F 98 °F (1980)
Min Temperature 48 °F 54 °F 43 °F (1954)
Degree Days  
Heating Degree Days 12    
Growing Degree Days 2 (Base 50)    
Moisture  
Dew Point 49 °F    
Average Humidity 87    
Maximum Humidity 100    
Minimum Humidity 51    
Precipitation  
Precipitation 0.87 in - - ()
Sea Level Pressure  
Sea Level Pressure 29.70 in    
Wind  
Wind Speed 12 mph (SSW)    
Max Wind Speed 23 mph    
Max Gust Speed 36 mph    
Visibility 7 miles    
Events      
Averages and records for this station are not official NWS values.
T = Trace of Precipitation, MM = Missing Value Source: NWS Daily Summary

Daily Weather History Graph

Daily Weather History Graph

Search for Another Location

Airport:

Trip Planner

Search our weather history database for the weather conditions in past years. The results will help you decide how hot, cold, wet, or windy it might be!

Date:

Astronomy

Oct. 05, 2011 Rise Set
Actual Time 7:03 AM PDT 6:41 PM PDT
Civil Twilight 6:37 AM PDT 7:07 PM PDT
Nautical Twilight 6:06 AM PDT 7:38 PM PDT
Astronomical Twilight 5:35 AM PDT 8:09 PM PDT
Moon 3:21 PM PDT (10/5) 12:58 AM PDT (10/5)
Length of Visible Light 12h 30m
Length of Day
11h 37m
Waxing Gibbous, 67% of the Moon is Illuminated
Oct 5
Waxing Gibbous
Oct 11
Full
Oct 19
Last Quarter
Oct 26
New
Nov 2
First Quarter

Hourly Weather History & Observations

Time (PDT) Temp. Dew Point Humidity Pressure Visibility Wind Dir Wind Speed Gust Speed Precip Events Conditions
12:15 AM 51.8 °F 51.8 °F 100% 29.72 in 5.0 mi SSE 12.7 mph - 0.03 in   Overcast
12:35 AM 51.8 °F 51.8 °F 100% 29.70 in 5.0 mi SSE 13.8 mph 18.4 mph 0.06 in   Overcast
12:55 AM 51.8 °F 51.8 °F 100% 29.68 in 3.0 mi SSE 15.0 mph 23.0 mph 0.10 in   Overcast
1:35 AM 51.8 °F 51.8 °F 100% 29.66 in 2.0 mi SSE 10.4 mph 20.7 mph 0.09 in   Overcast
1:55 AM 51.8 °F 51.8 °F 100% 29.64 in 2.5 mi SSE 11.5 mph - 0.16 in   Overcast
2:15 AM 53.6 °F 51.8 °F 94% 29.62 in 3.0 mi SSE 13.8 mph 20.7 mph 0.01 in   Overcast
2:35 AM 53.6 °F 51.8 °F 94% 29.61 in 2.0 mi SSE 19.6 mph 27.6 mph 0.12 in   Overcast
2:55 AM 53.6 °F 51.8 °F 94% 29.60 in 2.5 mi South 13.8 mph 28.8 mph 0.21 in   Overcast
3:15 AM 53.6 °F 51.8 °F 94% 29.58 in 2.5 mi South 11.5 mph 21.9 mph 0.11 in   Overcast
3:35 AM 53.6 °F 51.8 °F 94% 29.58 in 2.5 mi South 19.6 mph 29.9 mph 0.21 in   Overcast
3:55 AM 53.6 °F 53.6 °F 100% 29.60 in 2.5 mi SW 18.4 mph 25.3 mph 0.28 in   Overcast
4:15 AM 53.6 °F 53.6 °F 100% 29.60 in 4.0 mi SSW 23.0 mph 28.8 mph 0.05 in   Overcast
4:35 AM 53.6 °F 53.6 °F 100% 29.61 in 10.0 mi SSW 12.7 mph 35.7 mph 0.05 in   Overcast
4:55 AM 51.8 °F 51.8 °F 100% 29.62 in 9.0 mi SSW 17.3 mph 31.1 mph 0.05 in   Overcast
5:15 AM 51.8 °F 51.8 °F 100% 29.63 in 9.0 mi South 17.3 mph 32.2 mph N/A   Overcast
5:35 AM 51.8 °F 51.8 °F 100% 29.64 in 0.5 mi SSW 19.6 mph 26.5 mph N/A   Overcast
5:55 AM 51.8 °F 51.8 °F 100% 29.64 in 1.5 mi SSW 16.1 mph 23.0 mph 0.01 in   Overcast
6:15 AM 51.8 °F 51.8 °F 100% 29.65 in 4.0 mi SSW 13.8 mph 19.6 mph N/A   Overcast
6:35 AM 51.8 °F 51.8 °F 100% 29.66 in 7.0 mi SSW 11.5 mph 19.6 mph N/A   Overcast
6:55 AM 51.8 °F 51.8 °F 100% 29.67 in 7.0 mi SW 16.1 mph 19.6 mph N/A   Overcast
7:15 AM 51.8 °F 51.8 °F 100% 29.68 in 10.0 mi SW 10.4 mph - N/A   Overcast
7:35 AM 51.8 °F 50.0 °F 94% 29.69 in 10.0 mi SW 9.2 mph - N/A   Overcast
7:55 AM 51.8 °F 48.2 °F 88% 29.69 in 10.0 mi SW 10.4 mph 16.1 mph N/A   Mostly Cloudy
8:15 AM 50.0 °F 48.2 °F 94% 29.70 in 10.0 mi SW 9.2 mph - N/A   Mostly Cloudy
8:35 AM 51.8 °F 50.0 °F 94% 29.71 in 10.0 mi SW 8.1 mph - N/A   Mostly Cloudy
8:55 AM 51.8 °F 50.0 °F 94% 29.72 in 10.0 mi SSW 8.1 mph - N/A   Overcast
9:15 AM 51.8 °F 48.2 °F 88% 29.72 in 10.0 mi SW 6.9 mph - N/A   Mostly Cloudy
9:55 AM 51.8 °F 48.2 °F 88% 29.74 in 10.0 mi SSW 8.1 mph - N/A   Partly Cloudy
10:15 AM 53.6 °F 46.4 °F 77% 29.75 in 10.0 mi SW 8.1 mph - N/A   Scattered Clouds
10:35 AM 53.6 °F 46.4 °F 77% 29.75 in 10.0 mi SW 10.4 mph - N/A   Mostly Cloudy
10:55 AM 55.4 °F 46.4 °F 72% 29.76 in 10.0 mi SSW 8.1 mph - N/A   Mostly Cloudy
11:15 AM 53.6 °F 44.6 °F 72% 29.76 in 10.0 mi WSW 8.1 mph - N/A   Mostly Cloudy
11:35 AM 55.4 °F 46.4 °F 72% 29.76 in 10.0 mi WSW 9.2 mph - N/A   Mostly Cloudy
11:55 AM 55.4 °F 46.4 °F 72% 29.77 in 10.0 mi SW 8.1 mph - N/A   Mostly Cloudy
12:15 PM 55.4 °F 44.6 °F 67% 29.77 in 10.0 mi SW 5.8 mph - N/A   Scattered Clouds
1:15 PM 57.2 °F 42.8 °F 59% 29.77 in 10.0 mi SSW 9.2 mph - N/A   Overcast
1:35 PM 57.2 °F 42.8 °F 59% 29.77 in 10.0 mi SW 4.6 mph - N/A   Mostly Cloudy
1:55 PM 57.2 °F 42.8 °F 59% 29.76 in 10.0 mi South 9.2 mph - N/A   Mostly Cloudy
2:15 PM 57.2 °F 42.8 °F 59% 29.76 in 10.0 mi SSW 8.1 mph - N/A   Mostly Cloudy
2:55 PM 57.2 °F 39.2 °F 51% 29.76 in 10.0 mi SW 8.1 mph - N/A   Mostly Cloudy
3:15 PM 57.2 °F 41.0 °F 55% 29.76 in 10.0 mi SW 9.2 mph 17.3 mph N/A   Mostly Cloudy
3:35 PM 51.8 °F 44.6 °F 76% 29.77 in 9.0 mi West 10.4 mph 21.9 mph N/A   Mostly Cloudy
3:55 PM 48.2 °F 46.4 °F 93% 29.78 in 5.0 mi WNW 8.1 mph - N/A   Mostly Cloudy
4:15 PM 48.2 °F 46.4 °F 93% 29.79 in 5.0 mi SW 5.8 mph - 0.02 in   Mostly Cloudy
4:35 PM 48.2 °F 46.4 °F 93% 29.79 in 4.0 mi SSW 4.6 mph - 0.05 in   Mostly Cloudy
4:55 PM 50.0 °F 46.4 °F 87% 29.77 in 10.0 mi SSE 6.9 mph - 0.06 in   Overcast
5:15 PM 50.0 °F 46.4 °F 87% 29.77 in 10.0 mi SE 6.9 mph - N/A   Overcast
5:35 PM 48.2 °F 46.4 °F 93% 29.78 in 10.0 mi SE 4.6 mph - N/A   Mostly Cloudy
5:55 PM 48.2 °F 46.4 °F 93% 29.78 in 10.0 mi SE 8.1 mph - N/A   Overcast
6:15 PM 48.2 °F 46.4 °F 93% 29.79 in 4.0 mi SSE 6.9 mph - 0.01 in   Mostly Cloudy
6:35 PM 48.2 °F 46.4 °F 93% 29.79 in 9.0 mi SE 8.1 mph - 0.02 in   Overcast
6:55 PM 48.2 °F 46.4 °F 93% 29.79 in 10.0 mi SSE 6.9 mph - 0.02 in   Mostly Cloudy
7:15 PM 48.2 °F 46.4 °F 93% 29.80 in 10.0 mi SSE 6.9 mph - N/A   Scattered Clouds
7:35 PM 48.2 °F 46.4 °F 93% 29.80 in 10.0 mi SSE 8.1 mph - N/A   Mostly Cloudy
7:55 PM 48.2 °F 46.4 °F 93% 29.80 in 10.0 mi SSE 8.1 mph - N/A   Overcast
8:15 PM 48.2 °F 46.4 °F 93% 29.81 in 10.0 mi SSE 6.9 mph - N/A   Overcast
8:35 PM 48.2 °F 46.4 °F 93% 29.81 in 10.0 mi SSE 6.9 mph - N/A   Scattered Clouds
8:55 PM 48.2 °F 46.4 °F 93% 29.81 in 10.0 mi South 6.9 mph - N/A   Scattered Clouds
9:15 PM 48.2 °F 46.4 °F 93% 29.82 in 10.0 mi SSE 9.2 mph - N/A   Scattered Clouds
9:35 PM 48.2 °F 46.4 °F 93% 29.82 in 10.0 mi SSE 8.1 mph - N/A   Scattered Clouds
9:55 PM 48.2 °F 46.4 °F 93% 29.82 in 10.0 mi SSE 8.1 mph - N/A   Mostly Cloudy
10:15 PM 48.2 °F 46.4 °F 93% 29.82 in 10.0 mi SE 8.1 mph - N/A   Overcast
10:35 PM 48.2 °F 46.4 °F 93% 29.83 in 10.0 mi SSE 6.9 mph - N/A   Overcast
10:55 PM 48.2 °F 46.4 °F 93% 29.83 in 10.0 mi SSE 3.5 mph - N/A   Overcast
11:15 PM 48.2 °F 46.4 °F 93% 29.84 in 10.0 mi South 5.8 mph - N/A   Overcast
11:35 PM 48.2 °F 46.4 °F 93% 29.84 in 10.0 mi SSW 6.9 mph - N/A   Overcast
11:55 PM 48.2 °F 46.4 °F 93% 29.84 in 10.0 mi SSW 8.1 mph - N/A   Overcast